Location: Newark
(49.3667°N, 21.6167°E)
Time: 23:17:43
(UTC+00:00)

Envisat - Pass Details

Date: 15 December 2019
Orbit: 764 x 766 km, 98.1° (Epoch: 21 January)

Event Time Altitude Azimuth Distance (km) Brightness Sun altitude
Rises 04:52:11 0° 19° (NNE) 3,246 6.2 -13.7°
Reaches altitude 10° 04:54:39 10° 27° (NNE) 2,314 5.6 -13.4°
Maximum altitude 04:59:27 41° 97° (E) 1,109 4.5 -12.6°
Drops below altitude 10° 05:04:13 10° 167° (SSE) 2,297 6.0 -11.9°
Sets 05:06:38 0° 175° (S) 3,218 6.6 -11.6°
